User: anonymous   Login
Location: Cluny
(50.9333°N, 112.8167°W)
Time: 14:35:14
(UTC-07:00)
Language:

Hamsat - Orbit

View from above orbital plane
View from above orbital plane
View from above satellite
View from above satellite

Ground track
Ground track

The orbit data is extracted from the following two-line orbital elements,

1 28650U 05017B   15064.40338495  .00003538  00000-0  39978-3 0  9994
2 28650 097.5700 061.6310 0024871 019.2006 341.0142 14.86889525532021
Epoch (UTC): 05 March 2015 09:40:52
Eccentricity: 0.0024871
inclination: 97.5700°
perigee height: 590 km
apogee height: 625 km
right ascension of ascending node: 61.6310°
argument of perigee: 19.2006°
revolutions per day: 14.86889525
mean anomaly at epoch: 341.0142°
orbit number at epoch: 53202

The dashed part of the orbit path shows where the satellite is in the earth's shadow,  

DLR